Regional Weather Roundup
Issued by NWS Northern Indiana

Home | Current Version | Previous Version | Graphics & Text | Print | Product List | Glossary On
Versions: 1 2 3 4 5 6 7 8 9 10 11 12 13 14 15 16 17 18 19 20 21 22 23 24 25 26 27 28 29 30 31 32 33 34 35 36 37 38 39 40 41 42 43 44 45 46 47 48 49 50
000
ASUS43 KIWX 270600
RWRIWX

KIWX WEATHER ROUNDUP
NATIONAL WEATHER SERVICE NORTHERN INDIANA
200 AM EDT MON APR 27 2015

NOTE: "FAIR" INDICATES FEW OR NO CLOUDS BELOW 12,000 FEET WITH NO
SIGNIFICANT WEATHER AND/OR OBSTRUCTIONS TO VISIBILITY.

* THESE STATIONS ARE NOT UNDER NWS QUALITY CONTROL. THEY ALSO MAY NOT
  REPORT WEATHER SUCH AS PRECIPITATION OR FOG.

INZ001>027-270700-
NORTHERN INDIANA

CITY           SKY/WX    TMP DP  RH WIND       PRES   REMARKS
GARY*          CLEAR     44  31  60 N16G23    30.05S
KNOX*          CLEAR     34  25  69 NW7       30.00S WCI  28
SOUTH BEND     CLEAR     40  31  70 N8        29.99S
6HR MIN TEMP:  39; 6HR MAX TEMP:  49;

GOSHEN         CLEAR     39  28  64 NW6       29.96S
6HR MIN TEMP:  38; 6HR MAX TEMP:  52;

WARSAW*        MOCLDY    39  28  65 NW7       29.96S
ANGOLA*        CLEAR     43  28  56 N6        29.94S
FORT WAYNE     PTCLDY    45  31  58 NW8       29.94S
6HR MIN TEMP:  45; 6HR MAX TEMP:  53;

PERU/GRISSOM   MOCLDY    40  29  63 NW8       29.97R
6HR MIN TEMP:  40; 6HR MAX TEMP:  53;


$$
INZ028>050-270700-
CENTRAL INDIANA

CITY           SKY/WX    TMP DP  RH WIND       PRES   REMARKS
LAFAYETTE      CLEAR     36  29  75 NW8       30.00S
6HR MIN TEMP:  35; 6HR MAX TEMP:  51;

KOKOMO*        CLEAR     39  28  65 NW8       29.97S
6HR MIN TEMP:  39; 6HR MAX TEMP:  54;

MUNCIE*        CLOUDY    45  35  68 NW5       29.94S
6HR MIN TEMP:  45; 6HR MAX TEMP:  53;

INDIANAPOLIS   PTCLDY    40  29  64 NW7       29.95F
6HR MIN TEMP:  40; 6HR MAX TEMP:  54;


$$
MIZ043>046-050>051-056>058-064>065-071>073-077>080-270700-
SOUTHWEST LOWER MICHIGAN

CITY           SKY/WX    TMP DP  RH WIND       PRES   REMARKS
BATTLE CREEK   CLEAR     42  30  62 N8        29.97S
6HR MIN TEMP:  42; 6HR MAX TEMP:  56;

BENTON HARBOR  CLEAR     39  35  86 CALM      30.00R
6HR MIN TEMP:  39; 6HR MAX TEMP:  43;

COLDWATER*     CLEAR     42  30  61 N5        29.95S
6HR MIN TEMP:  42; 6HR MAX TEMP:  54;

HILLSDALE*     CLEAR     42  30  61 E3        29.94S
6HR MIN TEMP:  42; 6HR MAX TEMP:  54;

HOLLAND        CLEAR     44  31  60 N5        30.01S
6HR MIN TEMP:  44; 6HR MAX TEMP:  53;

GRAND RAPIDS   CLEAR     41  30  65 N8        29.99S
6HR MIN TEMP:  41; 6HR MAX TEMP:  55;

KALAMAZOO      CLEAR     40  29  64 N5        29.97S
6HR MIN TEMP:  38; 6HR MAX TEMP:  54;

STURGIS*       CLEAR     43  30  61 CALM      29.95S
THREE RIVERS*  FAIR      42  31  65 N5        29.97S

$$
OHZ001>008-015>018-024>025-270700-
NORTHWEST OHIO

CITY           SKY/WX    TMP DP  RH WIND       PRES   REMARKS
DEFIANCE       CLOUDY    48  34  58 E7        29.95R
6HR MIN TEMP:  47; 6HR MAX TEMP:  56;

FINDLAY        CLOUDY    46  32  58 NE7       29.94R
6HR MIN TEMP:  45; 6HR MAX TEMP:  54;

TOLEDO EXPRESS CLOUDY    44  32  62 E3        29.95S
6HR MIN TEMP:  43; 6HR MAX TEMP:  55;

TOLEDO METCALF CLOUDY    42  33  70 CALM      29.96S
6HR MIN TEMP:  42; 6HR MAX TEMP:  53;

LIMA           CLOUDY    45  36  70 NE3       29.92R
6HR MIN TEMP:  45; 6HR MAX TEMP:  53;


$$
AND FOR LAKE MICHIGAN COASTAL AND OPEN LAKE BUOY OBSERVATIONS

STATION/POSITION TEMP    WIND        PRES    VSBY  WAVE
                 AIR SEA DIR/SP/G                  HT/PER
                 (F)     (DEG/KT/KT) (MB)    (MI)  (FT/S)
CALUMET HARBOR    43     340/ 12/ 17   N/A
MICHIGAN CITY     41     340/ 17/ 19   N/A
BURNS HARBOR      42     350/ 18/ 23 1016.9S
SAINT JOSEPH      43     350/  9/ 14 1015.9F
MICHIGAN CITY     40 45  350/ 16/ 19   N/A           4/ 6

$$
&&



USA.gov is the U.S. government's official web portal to all federal, state and local government web resources and services.